User: anonymous   Login
Location: Unspecified
(0.0000°N, 0.0000°E)
Time: 14:00:54
(UTC+00:00)
Language:

RS-15 - Orbit

View from above orbital plane
View from above orbital plane
View from above satellite
View from above satellite

Ground track
Ground track

The orbit data is extracted from the following two-line orbital elements,

1 23439U 94085A   18050.73557295 -.00000027 +00000-0 +44015-3 0  9991
2 23439 064.8160 178.7867 0161182 202.9720 263.5539 11.27566586953325
Epoch (UTC): 19 February 2018 17:39:13
Eccentricity: 0.0161182
inclination: 64.8160°
perigee height: 1887 km
apogee height: 2158 km
right ascension of ascending node: 178.7867°
argument of perigee: 202.9720°
revolutions per day: 11.27566586
mean anomaly at epoch: 263.5539°
orbit number at epoch: 95332

The dashed part of the orbit path shows where the satellite is in the earth's shadow,  

DLR